This demonstration page uses our WeatherBlox Daily Observations layout. Learn more.

Left ArrowRight Arrow

47.50024, -111.30081

Hourly Observations for April 23, 2020

Temp ( °F °C ) Dew Point ( °F °C ) Humidity (%) Winds ( mph kmh ) Pressure ( in mb ) Visibility ( mi km ) Precip ( " mm )
12:53 am 00:53 Partly Cloudy 45 7.2 32 0 61 61 WSW 12 19 29.81 1010 10 16 0.00 0.00
1:53 am 01:53 Cloudy 46 7.8 33 0.6 61 61 WSW 12 19 29.80 1009 10 16 0.00 0.00
2:53 am 02:53 Cloudy 46 7.8 33 0.6 61 61 WSW 15 24 29.80 1009 10 16 0.00 0.00
3:53 am 03:53 Cloudy 46 7.8 33 0.6 61 61 WSW 14 22 29.81 1010 10 16 0.00 0.00
4:53 am 04:53 Cloudy 45 7.2 33 0.6 63 63 SW 9 15 29.83 1010 10 16 0.00 0.00
5:53 am 05:53 Cloudy 47 8.3 32 0 56 56 W 10 17 29.83 1010 10 16 0.00 0.00
6:53 am 06:53 Cloudy with Light Rain 45 7.2 34 1.1 66 66 W 13 20 29.86 1011 10 16 0.00 0.00
7:53 am 07:53 Cloudy 45 7.2 35 1.7 68 68 W 8 13 29.88 1012 10 16 0.00 0.00
8:53 am 08:53 Cloudy with Light Rain 45 7.2 36 2.2 71 71 WNW 12 19 29.90 1013 10 16 0.00 0.00
9:53 am 09:53 Cloudy with Light Rain 45 7.2 38 3.3 77 77 WNW 10 17 29.91 1013 10 16 0.02 0.51
10:53 am 10:53 Cloudy with Light Rain 45 7.2 37 2.8 74 74 WNW 14 22 29.92 1013 7 11 0.00 0.00
11:53 am 11:53 Mostly Cloudy 47 8.3 40 4.4 77 77 WNW 8 13 29.92 1013 10 16 0.00 0.00
12:53 pm 12:53 Partly Cloudy 54 12.2 37 2.8 53 53 WNW 15 24 29.90 1012 10 16 0.00 0.00
1:53 pm 13:53 Mostly Cloudy 55 12.8 33 0.6 44 44 WNW 16 26 29.89 1012 10 16 0.00 0.00
2:53 pm 14:53 Cloudy 52 11.1 33 0.6 49 49 WNW 15 24 29.91 1013 10 16 0.00 0.00
3:53 pm 15:53 Cloudy 56 13.3 33 0.6 42 42 NNW 10 17 29.90 1013 10 16 0.00 0.00
4:53 pm 16:53 Mostly Cloudy 56 13.3 31 -0.6 39 39 WNW 14 22 29.90 1013 10 16 0.00 0.00
5:53 pm 17:53 Cloudy with Light Rain 54 12.2 34 1.1 47 47 N 10 17 29.92 1013 10 16 0.00 0.00
6:53 pm 18:53 Mostly Cloudy 55 12.8 31 -0.6 40 40 W 9 15 29.93 1013 10 16 0.00 0.00
7:53 pm 19:53 Mostly Cloudy 50 10 34 1.1 54 54 ENE 10 17 29.97 1015 10 16 0.00 0.00
8:53 pm 20:53 Cloudy 49 9.4 34 1.1 56 56 SE 5 7 30.00 1016 10 16 0.00 0.00
9:53 pm 21:53 Cloudy 45 7.2 29 -1.7 54 54 WSW 9 15 30.04 1017 10 16 0.00 0.00
10:53 pm 22:53 Mostly Cloudy 43 6.1 29 -1.7 58 58 W 8 13 30.05 1018 10 16 0.00 0.00
11:53 pm 23:53 Mostly Cloudy 41 5 29 -1.7 62 62 SW 10 17 30.06 1018 10 16 0.00 0.00

Powered by AerisWeather